Weather Roundup
Issued by NWS Chicago, IL

Home | Current Version | Previous Version | Text Only | Print | Product List | Glossary Off
Versions: 1 2 3 4 5 6 7 8 9 10 11 12 13 14 15 16 17 18 19 20 21 22 23 24 25 26 27 28 29 30 31 32 33 34 35 36 37 38 39 40 41 42 43 44 45 46 47 48 49 50

000
NZUS59 KLOT 062203
HRRLOT

CHICAGO AREA WEATHER ROUNDUP
NATIONAL WEATHER SERVICE CHICAGO/ROMEOVILLE IL
400 PM CST SAT FEB 06 2016

NOTE: "FAIR" INDICATES FEW OR NO CLOUDS BELOW 12,000 FEET WITH NO
SIGNIFICANT WEATHER AND/OR OBSTRUCTIONS TO VISIBILITY.

* THESE STATIONS ARE NOT UNDER NWS QUALITY CONTROL. THEY ALSO MAY NOT
  REPORT WEATHER SUCH AS PRECIPITATION OR FOG.

ILZ005-006-012>014-019>023-062300-
NORTHEAST ILLINOIS

CITY           SKY/WX    TMP DP  RH WIND       PRES   REMARKS
OHARE          MOSUNNY   41  28  60 SW7       30.14F
MIDWAY         MOSUNNY   42  27  55 SW13      30.16F
AURORA         SUNNY     42  29  59 SW13      30.15F
LANSING*       MOSUNNY   40  29  65 SW10      30.18F
WAUKEGAN       SUNNY     39  28  64 SW8       30.13F
DUPAGE AIRPORT SUNNY     40  28  62 SW12      30.14F
WHEELING       MOSUNNY   41  28  60 SW7       30.15F
$$

WIZ051-052-058>065-066-070>072-062300-
SOUTHEAST WISCONSIN

CITY           SKY/WX    TMP DP  RH WIND       PRES   REMARKS
MILWAUKEE      CLOUDY    34  26  72 W9        30.12F WCI  27
KENOSHA*       SUNNY     37  28  70 W12       30.13F
RACINE*        MOSUNNY   35  26  69 W6        30.14F WCI  30
BURLINGTON     SUNNY     34  27  73 W3        30.12F
WAUKESHA       CLOUDY    30  25  80 SW13      30.13S WCI  20
$$

INZ001>003-010>013-019-020-062300-
NORTHWEST INDIANA

CITY           SKY/WX    TMP DP  RH WIND       PRES   REMARKS
GARY*          MOSUNNY   43  27  52 SW14      30.18F
MICHIGAN CITY* NOT AVBL
RENSSELAER*    NOT AVBL
VALPARAISO     SUNNY     40  28  62 SW14      30.18F
$$

LMZ740>746-062300-
SOUTHERN LAKE MICHIGAN

STATION/POSITION TIME  SKY/WX   TEMP WIND        PRES    VSBY
                                AIR  DIR/SP/G
                 (UTC)          (F)  (DEG/KT/KT) (MB)    (MI)
HARRISON CRIB    2100            41  230/ 14/ 19   N/A
BURNHAM HARBOR   2200            41  250/  7/ 13   N/A
CALUMET HARBOR   2100            40  200/ 12/ 17 1020.9F
BURNS HARBOR     2100            40  230/ 10/ 15 1022.7S
MICHIGAN CITY    2100            38  220/ 11/ 13   N/A
$$

ABBREVIATIONS USED IN REMARKS
   TC - TEMPERATURE IN CELSIUS
  WCI - WIND CHILL INDEX
   HX - HEAT INDEX
  VSB - VISIBILITY
$$



USA.gov is the U.S. government's official web portal to all federal, state and local government web resources and services.